RH
94 100 100 99 100 100 99 99 99 91 88 87 78 76 81 74 69 62 52 37 28 23 23 22 22 23 25 26 27 27 30 33 35 38 42 47 51 53 53 51 49 53 58
96 100 100 100 100 100 100 99 97 98 90 83 66 57 59 52 64 88 63 52 50 39 34 30 28 27 27 27 29 31 33 34 38 40 45 49 54 57 57 57 54 55 58
87 91 96 98 99 100 100 100 100 100 99 79 79 70 47 39 37 41 72 66 49 51 54 49 45 41 38 35 35 36 36 38 41 42 48 54 58 60 61 63 62 59 58
84 93 99 85 82 90 100 100 99 92 96 82 85 69 39 32 29 30 32 56 68 56 53 56 58 57 55 50 47 45 43 45 46 49 54 58 63 66 66 64 64 60 60
73 96 98 91 91 99 99 100 100 100 95 83 77 74 44 30 24 24 26 27 45 71 74 69 60 62 69 67 62 60 57 56 56 59 62 66 69 72 73 71 65 59 59
64 83 86 81 87 90 93 99 99 100 90 99 91 70 56 27 22 20 21 24 27 37 65 79 80 74 68 67 74 72 72 70 69 69 71 72 74 78 80 80 68 60 56
55 60 69 75 69 93 94 99 97 98 99 91 90 75 54 38 37 35 26 21 24 29 37 51 68 84 79 76 74 82 76 85 83 80 79 80 82 85 86 83 73 68 62
58 60 70 80 89 68 75 94 99 98 96 94 88 84 58 46 34 34 29 23 21 22 23 30 39 51 66 89 89 86 94 96 98 94 90 91 92 91 87 82 80 73 66
54 55 62 65 98 89 66 73 75 74 87 77 68 74 60 33 30 28 29 32 25 21 22 25 27 39 49 69 77 86 99 100 100 99 98 96 93 93 86 87 84 80 69
55 60 63 58 84 96 91 53 66 56 68 77 46 49 35 31 29 29 30 29 30 26 28 30 33 34 47 46 72 100 99 100 100 99 100 98 95 94 90 94 88 83 76
50 51 50 51 58 72 78 62 55 52 45 46 60 53 42 37 32 31 34 31 26 26 28 31 33 40 52 59 73 90 100 100 99 99 99 97 97 98 97 95 91 85 80
66 66 66 59 56 56 53 51 51 48 48 41 37 40 42 44 41 39 35 34 34 29 33 46 48 53 61 57 77 99 100 100 100 100 99 99 98 97 95 93 92 90 89
54 50 48 50 64 71 70 67 62 57 56 51 52 57 50 54 54 53 54 51 59 52 44 55 58 64 73 62 81 100 100 100 100 99 99 100 98 96 95 95 95 91 92
61 54 52 50 46 44 41 42 49 60 63 66 68 67 74 71 61 60 64 60 75 83 82 74 69 81 79 83 97 100 100 100 100 99 98 97 96 96 96 95 95 92 87
70 66 64 64 64 56 47 43 40 37 38 43 55 68 84 81 88 96 96 99 98 99 99 92 89 94 94 100 100 100 99 100 99 98 97 96 96 97 96 96 94 90 81
64 64 60 58 56 54 57 55 50 47 43 38 34 44 64 77 86 91 94 100 100 100 100 99 100 100 100 100 100 100 100 99 98 97 96 96 96 96 97 96 94 86 73
55 53 52 52 51 49 48 49 51 50 48 45 43 39 43 69 83 91 96 100 100 100 100 100 100 100 99 98 98 98 97 98 96 95 95 96 96 96 96 96 91 78 60
60 60 56 50 48 49 47 45 48 52 52 55 55 46 42 55 84 88 96 100 100 100 100 98 97 97 98 98 97 97 96 96 96 96 96 97 97 97 97 93 78 62 45
67 66 63 58 55 51 50 49 50 65 66 76 95 89 85 98 100 96 99 100 94 100 99 98 98 96 96 96 97 97 97 96 96 96 96 96 97 97 94 85 61 44 31
76 70 66 64 61 59 61 60 74 96 82 99 100 100 100 100 100 99 100 100 100 100 100 99 95 94 96 97 96 96 96 96 95 96 96 96 96 95 94 80 46 28 17
84 79 73 72 70 71 74 77 98 100 96 100 100 99 99 99 98 97 98 97 97 96 96 97 97 96 96 96 97 97 96 96 95 94 95 96 96 95 94 58 25 15 13
84 83 80 75 74 74 72 82 100 100 100 100 96 96 98 98 97 97 96 96 97 97 96 98 97 96 95 96 95 95 95 96 96 96 95 95 95 95 90 39 12 9 6
87 82 78 74 76 80 83 93 98 96 98 99 99 97 96 97 96 97 96 95 95 96 96 96 96 96 96 96 96 96 96 93 94 95 95 96 96 93 42 9 6 5 4
98 96 89 82 80 85 92 95 97 96 96 96 98 98 96 97 97 98 98 97 96 96 96 97 98 97 96 95 98 97 96 95 94 94 94 95 80 29 13 5 4 4 4
100 100 96 94 96 99 100 98 98 97 96 97 99 99 97 99 99 98 100 98 97 97 97 98 97 96 97 97 97 96 97 96 96 96 93 96 72 19 5 5 5 4 4
100 100 100 98 99 100 100 100 100 99 99 100 99 99 99 99 98 98 99 98 97 97 98 97 97 97 97 97 97 97 98 98 97 94 87 38 11 5 5 5 5 5 4
Wind_Speed
29 22 26 31 40 40 47 43 33 38 32 29 27 28 29 31 32 35 35 35 37 36 34 34 34 34 33 32 31 32 31 31 30 30 30 30 31 32 34 34 36 37 38
32 29 19 38 39 37 38 37 40 34 35 35 29 29 29 31 35 36 35 38 38 36 36 36 37 35 35 34 34 34 33 35 33 32 31 32 32 34 36 36 38 40 40
34 28 29 36 36 39 42 48 38 36 34 35 34 34 30 33 34 38 41 38 38 40 40 39 38 39 37 36 37 36 37 37 35 35 34 34 34 35 37 39 40 39 40
38 36 32 31 33 24 46 43 46 46 43 44 37 31 31 32 38 40 41 44 43 43 45 42 43 42 40 39 41 39 42 38 37 38 36 36 36 37 39 39 38 39 37
39 41 39 33 33 37 40 41 45 47 44 45 42 39 33 34 35 38 41 45 47 48 48 46 45 44 43 44 45 43 44 39 40 39 39 38 39 40 40 41 41 39 36
40 43 43 43 40 37 31 44 40 34 49 44 45 39 38 35 33 38 43 45 46 48 48 49 48 47 47 48 50 46 47 43 41 42 40 41 41 41 41 41 42 42 40
43 43 44 44 44 43 38 41 41 42 36 44 38 37 37 37 36 38 41 43 44 46 48 48 50 51 50 53 53 51 49 48 43 45 42 44 42 42 42 41 42 43 42
40 41 41 42 41 43 40 36 35 34 28 31 34 43 39 38 40 40 44 42 44 44 45 47 49 52 55 56 55 54 53 49 47 46 45 45 43 43 44 44 43 43 42
36 38 41 41 42 41 42 44 41 35 35 34 35 37 38 46 43 45 46 45 44 44 48 49 49 51 52 55 57 57 57 51 51 49 47 46 44 44 45 45 45 46 46
33 34 37 40 45 45 45 42 43 44 40 39 38 44 43 44 44 46 48 49 50 47 47 49 51 51 52 55 56 57 55 53 52 50 49 47 46 45 46 45 45 45 48
33 36 38 38 41 44 46 45 43 44 45 44 44 48 46 41 43 46 49 47 47 49 50 51 51 52 51 51 53 54 52 53 53 51 50 51 49 46 44 45 45 46 47
24 26 31 37 41 44 45 46 46 48 50 50 49 48 50 49 48 47 48 49 48 50 49 46 47 47 47 49 50 50 53 52 51 52 53 52 49 44 43 44 44 46 46
22 21 21 22 23 27 33 37 40 43 45 47 45 44 44 43 45 45 47 49 48 48 49 46 44 45 47 51 48 51 50 49 51 52 50 49 46 44 43 43 43 45 43
26 25 24 22 21 19 19 20 21 23 26 32 33 33 36 38 40 42 43 43 41 41 40 40 40 41 45 45 46 46 45 49 49 50 48 46 43 41 41 41 41 44 45
30 31 31 30 29 27 26 24 21 21 23 24 24 26 28 30 31 34 36 36 35 34 35 36 36 37 38 38 37 39 42 44 46 47 45 42 40 39 39 39 41 43 45
32 33 34 34 35 36 34 32 31 29 26 24 26 27 27 28 29 32 32 32 29 31 33 34 33 32 31 32 34 37 41 44 45 42 39 38 37 36 37 38 39 42 42
28 31 33 35 39 40 39 39 40 38 35 34 32 30 31 29 29 30 31 31 31 34 31 31 32 31 32 34 36 38 39 38 38 36 35 36 36 36 36 36 37 38 36
27 28 29 31 33 36 39 42 43 43 40 38 36 37 35 33 31 31 30 29 33 32 31 33 33 32 32 33 34 34 34 33 33 34 35 35 34 34 34 34 34 34 34
26 27 28 30 30 33 35 37 38 38 39 39 38 40 38 34 34 33 33 32 32 29 32 34 34 33 33 33 33 32 32 32 32 33 33 33 33 32 30 30 30 32 34
24 26 26 27 29 30 31 34 34 35 37 37 37 36 36 37 38 41 41 37 35 36 35 34 34 34 32 31 31 31 31 31 32 32 32 32 31 29 26 25 28 30 30
20 21 24 25 25 26 27 30 32 32 33 35 35 36 39 40 40 39 37 36 36 35 35 33 32 31 30 29 29 29 29 29 29 30 31 30 27 25 22 23 26 28 32
17 19 20 22 23 24 26 28 29 31 33 34 38 39 37 37 36 34 32 31 30 30 30 29 29 29 28 27 26 26 26 27 28 28 28 26 23 21 19 21 24 26 29
14 16 17 19 19 19 21 23 25 27 29 30 30 31 30 30 29 29 28 27 25 24 24 23 23 24 24 24 24 26 27 27 27 25 24 21 19 16 18 20 22 24 27
11 10 10 12 13 13 15 17 18 20 21 22 22 23 23 23 24 22 21 21 21 21 21 21 21 22 23 24 25 25 25 25 25 23 20 16 14 16 18 18 20 23 25
9 8 7 7 7 9 12 14 14 15 17 18 18 19 18 21 20 18 18 19 20 20 21 21 21 22 23 23 22 23 22 22 22 20 19 13 14 17 16 16 18 20 24
8 8 7 8 11 14 15 16 17 17 17 17 17 18 18 19 18 17 17 17 18 18 18 19 20 21 21 21 20 20 20 20 19 17 13 14 16 15 13 14 17 20 22
Wind_Direction
222 228 229 212 202 204 210 202 195 198 187 195 204 213 219 224 226 229 230 231 235 235 238 242 245 248 249 252 256 260 265 268 272 276 281 286 290 294 297 300 301 303 303
217 222 240 211 203 199 210 201 192 193 200 208 213 220 227 232 232 233 233 233 235 236 239 241 245 248 251 254 256 260 264 267 271 275 279 283 289 294 297 300 302 304 304
218 210 221 209 213 212 202 202 198 198 198 205 222 243 243 240 239 238 236 236 236 239 238 240 244 247 249 252 256 258 262 265 271 275 277 282 287 292 295 300 304 305 305
217 217 218 222 229 240 208 198 203 206 213 221 226 244 246 241 238 240 239 239 238 240 242 240 242 245 249 252 255 258 260 264 270 273 277 281 286 289 294 298 300 303 302
221 220 223 229 229 235 228 215 212 207 216 224 231 248 261 258 248 244 244 242 240 241 243 244 246 248 249 252 255 257 261 264 268 272 275 280 285 289 294 298 301 301 301
226 226 229 233 234 233 241 220 210 224 222 231 230 243 249 255 252 250 248 245 243 243 243 246 247 249 250 253 255 258 261 264 265 270 274 279 282 287 292 299 301 302 303
229 227 226 231 233 228 236 235 231 231 231 233 238 235 254 253 253 254 254 251 248 247 245 245 247 248 251 253 256 257 261 261 266 267 272 275 280 286 292 297 299 304 309
232 231 229 229 236 236 234 238 243 239 239 244 241 237 246 251 253 252 256 252 251 251 253 252 250 250 251 250 253 256 257 260 262 266 270 276 281 286 291 295 295 300 304
228 228 228 227 230 236 230 236 241 243 244 243 245 241 246 254 252 254 255 258 255 253 251 247 249 249 250 251 253 254 256 258 261 265 269 273 279 283 288 290 294 299 302
225 223 225 225 225 228 234 234 235 237 233 247 246 248 247 245 247 251 252 256 259 258 255 252 250 249 248 251 251 252 256 258 261 264 267 271 275 277 283 287 292 297 301
232 232 230 228 228 228 232 237 238 239 240 237 242 251 256 256 255 254 252 256 257 258 259 255 252 253 252 253 254 255 257 259 260 264 267 270 272 273 282 286 291 296 303
222 228 233 234 235 235 237 239 241 241 243 244 244 245 246 250 252 253 256 258 259 262 260 256 255 254 254 254 254 254 256 258 261 262 265 267 270 275 280 284 288 295 302
207 211 217 220 225 230 231 233 237 240 242 244 243 244 246 247 252 253 254 254 256 258 259 259 257 254 252 253 252 253 255 258 260 263 266 267 268 273 279 282 285 291 298
218 216 219 220 219 224 230 229 226 230 234 237 238 239 243 245 248 250 253 256 259 261 261 262 262 258 257 258 253 256 256 256 259 263 263 264 269 273 277 280 285 289 294
228 229 231 234 236 235 235 238 236 235 236 239 240 239 241 243 250 252 253 255 256 257 257 259 257 254 256 259 259 258 257 258 260 258 259 264 270 273 277 281 285 290 295
238 238 238 237 239 239 240 242 245 243 244 249 249 249 247 243 241 245 247 248 251 252 252 253 254 256 257 256 254 254 254 254 254 258 262 265 268 273 275 279 285 290 295
242 242 242 241 240 238 239 241 243 245 244 243 245 252 253 247 246 247 247 247 245 246 247 249 250 250 249 249 250 251 253 255 256 258 261 264 268 271 274 279 284 290 297
250 248 247 244 245 245 240 239 240 239 240 241 241 241 241 244 245 249 250 249 249 251 252 252 251 249 248 249 250 251 253 254 255 258 262 266 269 271 275 280 287 295 300
251 251 250 250 249 248 249 245 242 241 240 240 239 240 238 236 239 240 240 242 250 248 251 253 252 249 248 246 246 247 249 251 255 260 263 265 267 270 277 286 295 301 307
250 252 251 251 251 252 250 247 245 239 239 239 239 241 241 243 240 240 241 243 242 240 239 242 249 251 248 245 244 246 250 253 255 258 261 264 267 272 280 290 298 303 307
253 256 255 255 253 252 250 248 241 237 238 237 236 236 237 240 243 245 246 244 244 242 241 241 240 239 240 241 244 247 251 256 259 263 266 267 269 275 286 296 302 307 309
252 250 251 253 254 250 248 245 239 237 234 233 234 235 236 238 239 238 237 235 233 234 233 232 234 237 240 243 247 251 255 258 258 260 263 267 271 277 289 296 300 305 308
259 253 251 249 247 247 242 238 238 238 238 238 237 236 235 232 227 226 226 228 229 231 233 235 237 239 239 242 246 248 252 254 255 257 259 264 271 282 289 294 299 303 310
274 272 264 250 241 232 225 225 226 226 226 224 222 217 216 214 211 213 216 217 221 227 231 231 232 233 238 243 245 248 251 253 254 255 256 263 275 280 285 295 301 309 317
262 265 259 236 205 194 190 186 186 190 193 193 191 192 194 196 201 209 210 212 217 221 225 230 234 238 240 242 244 247 248 250 253 255 256 260 273 277 286 295 306 315 323
240 227 212 193 177 171 162 156 154 153 152 156 161 167 180 191 201 213 215 215 217 222 226 230 234 236 239 240 241 242 242 244 246 250 257 269 272 278 287 300 310 317 324